This is the latest recevied weather packets stored in our database for station/object DJ2DS-13. If no packets are shown the sender has not sent any weather packets the latest 1 day(s).
| Time | Temp. | Humidity | Pressure | Rain* | Wind** | Luminosity | Snow |
|---|---|---|---|---|---|---|---|
| 1777984538 | 12.78° C | 74% | 1010.7 hPa | 0 mm | 1.34 m/s, 31° | 457 W/m² | - |
| 1777984239 | 12.78° C | 75% | 1010.7 hPa | 0 mm | 0.89 m/s, 31° | 482 W/m² | - |
| 1777983938 | 12.22° C | 73% | 1010.7 hPa | 0 mm | 0.89 m/s, 18° | 459 W/m² | - |
| 1777983638 | 12.22° C | 75% | 1010.6 hPa | 0 mm | 0.89 m/s, 18° | 433 W/m² | - |
| 1777983337 | 12.22° C | 74% | 1010.6 hPa | 0 mm | 0.89 m/s, 44° | 448 W/m² | - |
| 1777983038 | 12.22° C | 74% | 1010.6 hPa | 0 mm | 0.89 m/s, 21° | 434 W/m² | - |
| 1777982738 | 12.22° C | 76% | 1010.6 hPa | 0 mm | 0.89 m/s, 25° | 378 W/m² | - |
| 1777982439 | 12.22° C | 76% | 1010.5 hPa | 0 mm | 0.89 m/s, 69° | 387 W/m² | - |
| 1777982138 | 11.67° C | 75% | 1010.7 hPa | 0 mm | 0.89 m/s, 51° | 366 W/m² | - |
| 1777981838 | 11.67° C | 75% | 1010.7 hPa | 0 mm | 0.89 m/s, 0° | 352 W/m² | - |
| 1777981538 | 11.67° C | 75% | 1010.7 hPa | 0 mm | 0.89 m/s, 8° | 345 W/m² | - |
| 1777981238 | 11.67° C | 74% | 1010.6 hPa | 0 mm | 0.89 m/s, 316° | 331 W/m² | - |
| 1777980938 | 11.67° C | 75% | 1010.6 hPa | 0 mm | 0.89 m/s, 18° | 359 W/m² | - |
| 1777980638 | 11.67° C | 75% | 1010.6 hPa | 0 mm | 1.79 m/s, 66° | 390 W/m² | - |
| 1777980335 | 11.67° C | 75% | 1010.7 hPa | 0 mm | 1.34 m/s, 51° | 380 W/m² | - |
| 1777980035 | 11.67° C | 76% | 1010.7 hPa | 0 mm | 0.89 m/s, 44° | 369 W/m² | - |
| 1777979735 | 11.67° C | 77% | 1010.7 hPa | 0 mm | 0.89 m/s, 52° | 362 W/m² | - |
| 1777979435 | 11.67° C | 77% | 1010.6 hPa | 0 mm | 0.89 m/s, 17° | 375 W/m² | - |
| 1777979135 | 11.67° C | 77% | 1010.7 hPa | 0 mm | 1.34 m/s, 11° | 389 W/m² | - |
| 1777978834 | 11.67° C | 78% | 1010.7 hPa | 0 mm | 1.79 m/s, 35° | 288 W/m² | - |
| 1777978534 | 11.67° C | 78% | 1010.7 hPa | 0 mm | 0.89 m/s, 17° | 331 W/m² | - |
| 1777978233 | 11.67° C | 78% | 1010.7 hPa | 0 mm | 1.79 m/s, 41° | 364 W/m² | - |
| 1777977932 | 11.67° C | 78% | 1010.7 hPa | 0 mm | 1.34 m/s, 45° | 376 W/m² | - |
| 1777977632 | 11.67° C | 79% | 1010.6 hPa | 0 mm | 1.34 m/s, 31° | 380 W/m² | - |
| 1777977333 | 11.67° C | 78% | 1010.7 hPa | 0 mm | 1.79 m/s, 25° | 343 W/m² | - |
* Rain latest hour (hover to see other rain measurements)
** Current wind speed in m/s (hover to see current wind gust speed)